Погода в Иванове

Россия / Тульская область     53°55′05″N   36°09′47″E
темп.,
°C
ветер,
м/с
пор.,
м/с
влажн.,
%
обл.,
%
осадки,
мм/ч
давл.,
гПа
погр.,
м
1 августа, вс
вс100:00+17юз226993 0.0 101011
03:00+16ююз2270100 0.0 101115
06:00+17ююв2372100 0.0 101162
09:00+23ю4766100 0.1 1011382
12:00+28юз5745100 0.0 10111345
15:00+29ююз673971 0.0 10102428
18:00+27юз255328 0.0 1009655
21:00+22в11765 0.0 101011
2 августа, пн
пн200:00+19ю22805 0.0 101019
03:00+17ююз229152 0.5 101028
06:00+18ю269083 0.2 1009121
09:00+23ю357612 1.0 1008329
12:00+28ю694799 0.0 1007942
15:00+28ююз61157100 0.0 10061445
18:00+29ююз611505 0.0 10031295
21:00+17з71788100 1.8 1007509
3 августа, вт
вт300:00+17ю41095100 2.7 1005276
03:00+17ююз41098100 2.7 1004328
06:00+18з4892100 0.0 1006680
09:00+18зсз479267 0.7 1008515
12:00+21зсз676679 1.3 10091169
15:00+22зсз575731 1.6 10101591
18:00+19зсз488332 1.8 1011527
21:00+15юз349021 2.4 101266
4 августа, ср
ср400:00+15з258857 0.0 1013106
03:00+13з229028 0.0 101544
06:00+12з24905 0.0 101582
09:00+18з35690 0.0 1016497
12:00+22з455431 0.2 10161605
15:00+22зсз3558100 0.8 1016956
18:00+20з3567100 0.3 1016556
21:00+15з22875 0.3 101713
5 августа, чт
чт500:00+14зюз1191100 0.1 101811
03:00+13зюз11924 0.1 101811
06:00+14зсз0091100 0.0 101811
09:00+19ююз1267100 0.0 1018409
12:00+24ююз344774 0.0 10171574
15:00+23зюз2353100 0.1 1017755
18:00+19зсз2471100 0.1 1017172
21:00+17всв1171100 0.1 101719